Location: Lombard
(41.8800°N, 88.0080°W)
Time: 01:46:44
(UTC-05:00)

Vanguard 3 - Pass Details

Date: 03 February 2023
Orbit: 508 x 3249 km, 33.4° (Epoch: 31 March)

Event Time Altitude Azimuth Distance (km) Brightness Sun altitude
Rises 17:16:46 0° 212° (SSW) 3,713 11.5 -2.1°
Reaches altitude 10° 17:19:21 10° 201° (SSW) 3,063 10.7 -2.5°
Maximum altitude 17:25:58 29° 143° (SE) 2,616 9.6 -3.7°
Drops below altitude 10° 17:36:17 10° 91° (E) 4,904 10.5 -5.5°
Enters shadow 17:38:53 - 86° (E) 5,609 10.8 -6.0°
